SCOUT A DEB

基本信息
目录编号:
2778
目录名称:
SCOUT A DEB
国际标识:
1967-034D
轨道中心:
EARTH
物体状态:
在轨
发射日期:
1967-04-14 UTC
轨道信息
数据来源: 国际轨道数据
星历时间: 2026-07-13T21:16:27+0800
半长轴: 7505.021km
偏心率: 0.0121098
轨道倾角: 89.851°
近地点辐角: 281.156°
升交点赤经: 37.147°
平近点角: 107.273°
近地点: 1035.999km
远地点: 1217.769km
周期: 107.842分钟
每日圈数: 13.35288
详细信息
发射场:
AFWTR
轨道高度:
LEO
数据来源:
AOE Integration Group
参考系:
TEME
时间系统:
UTC
历元类型:
SGP4
2D轨道图
3D轨道图
轨道高度分析图
轨道倾角分析图
轨道综合分析图
查看轨道综合分析图